| time (UTC) | temp F | wind direction | speed MPH | gust MPH | rain 1hr in | rain 24hr in | rain mn in | humidity % | barometer mb |
| 20260509041557 | 56 | 80 | 2.0 | 3.0 | 0.00 | 0.00 | 0.00 | 56 | 1010.4 |
| 20260509040057 | 57 | 71 | 4.0 | 6.0 | 0.00 | 0.00 | 0.00 | 55 | 1010.0 |
| 20260509034556 | 57 | 87 | 1.0 | 3.0 | 0.00 | 0.00 | 0.00 | 54 | 1010.1 |
| 20260509033056 | 57 | 88 | 3.0 | 4.0 | 0.00 | 0.00 | 0.00 | 54 | 1009.8 |
| 20260509031555 | 59 | 138 | 2.0 | 7.0 | 0.00 | 0.00 | 0.00 | 50 | 1009.7 |
| 20260509030054 | 63 | 109 | 4.0 | 10.0 | 0.00 | 0.00 | 0.00 | 44 | 1009.3 |
| 20260509024553 | 63 | 71 | 7.0 | 10.0 | 0.00 | 0.00 | 0.00 | 43 | 1009.0 |
| 20260509023052 | 64 | 55 | 8.0 | 10.0 | 0.00 | 0.00 | 0.00 | 42 | 1008.9 |
| 20260509021552 | 66 | 15 | 7.0 | 9.0 | 0.00 | 0.00 | 0.00 | 40 | 1008.8 |
| 20260509020051 | 69 | 10 | 8.0 | 14.0 | 0.00 | 0.00 | 0.00 | 35 | 1008.5 |
| 20260509014551 | 70 | 10 | 9.0 | 11.0 | 0.00 | 0.00 | 0.00 | 34 | 1008.5 |
| 20260509013055 | 72 | 10 | 8.0 | 11.0 | 0.00 | 0.00 | 0.00 | 34 | 1008.3 |
| 20260509011550 | 75 | 11 | 5.0 | 8.0 | 0.00 | 0.00 | 0.00 | 30 | 1008.2 |
| 20260509010049 | 76 | 57 | 7.0 | 12.0 | 0.00 | 0.00 | 0.00 | 28 | 1008.2 |
| 20260509004558 | 78 | 64 | 11.0 | 15.0 | 0.00 | 0.00 | 0.00 | 27 | 1008.1 |
| 20260509003048 | 79 | 67 | 10.0 | 15.0 | 0.00 | 0.00 | 0.00 | 26 | 1008.1 |
| 20260509001552 | 80 | 36 | 10.0 | 14.0 | 0.00 | 0.00 | 0.00 | 25 | 1008.0 |
| 20260509000047 | 80 | 34 | 1.0 | 11.0 | 0.00 | 0.00 | 0.00 | 25 | 1007.9 |
| 20260508234546 | 81 | 40 | 8.0 | 15.0 | 0.00 | 0.00 | 0.00 | 26 | 1007.9 |
| 20260508233046 | 81 | 34 | 11.0 | 15.0 | 0.00 | 0.00 | 0.00 | 25 | 1007.8 |
| 20260508231545 | 82 | 26 | 3.0 | 19.0 | 0.00 | 0.00 | 0.00 | 25 | 1007.8 |
| 20260508230044 | 81 | 46 | 11.0 | 18.0 | 0.00 | 0.00 | 0.00 | 25 | 1007.8 |
| 20260508224549 | 82 | 34 | 10.0 | 17.0 | 0.00 | 0.00 | 0.00 | 25 | 1007.9 |
| 20260508223048 | 82 | 43 | 10.0 | 17.0 | 0.00 | 0.00 | 0.00 | 26 | 1008.0 |
| 20260508221540 | 83 | 57 | 13.0 | 22.0 | 0.00 | 0.00 | 0.00 | 26 | 1008.0 |
| 20260508220038 | 82 | 51 | 13.0 | 19.0 | 0.00 | 0.00 | 0.00 | 26 | 1008.4 |
| 20260508214553 | 81 | 39 | 14.0 | 23.0 | 0.00 | 0.00 | 0.00 | 28 | 1008.6 |
| 20260508213136 | 82 | 23 | 13.0 | 20.0 | 0.00 | 0.00 | 0.00 | 27 | 1008.6 |
| 20260508211534 | 81 | 298 | 11.0 | 24.0 | 0.00 | 0.00 | 0.00 | 27 | 1008.8 |
| 20260508210037 | 82 | 5 | 9.0 | 22.0 | 0.00 | 0.00 | 0.00 | 28 | 1009.0 |
| 20260508204535 | 82 | 13 | 13.0 | 21.0 | 0.00 | 0.00 | 0.00 | 29 | 1008.9 |
| 20260508203029 | 81 | 9 | 7.0 | 25.0 | 0.00 | 0.00 | 0.00 | 29 | 1009.3 |
| 20260508201527 | 81 | 9 | 10.0 | 25.0 | 0.00 | 0.00 | 0.00 | 29 | 1009.4 |
| 20260508200026 | 81 | 12 | 12.0 | 24.0 | 0.00 | 0.00 | 0.00 | 31 | 1009.6 |
| 20260508194524 | 80 | 10 | 11.0 | 22.0 | 0.00 | 0.00 | 0.00 | 30 | 1009.6 |
| 20260508193023 | 81 | 9 | 13.0 | 24.0 | 0.00 | 0.00 | 0.00 | 29 | 1009.7 |
| 20260508191524 | 81 | 11 | 13.0 | 26.0 | 0.00 | 0.00 | 0.00 | 31 | 1009.7 |
| 20260508190038 | 80 | 11 | 12.0 | 26.0 | 0.00 | 0.00 | 0.00 | 31 | 1009.9 |
| 20260508184528 | 80 | 11 | 13.0 | 24.0 | 0.00 | 0.00 | 0.00 | 31 | 1010.0 |
| 20260508183028 | 79 | 13 | 14.0 | 26.0 | 0.00 | 0.00 | 0.00 | 31 | 1010.2 |
| 20260508181518 | 79 | 11 | 17.0 | 27.0 | 0.00 | 0.00 | 0.00 | 32 | 1010.0 |
| 20260508180011 | 79 | 9 | 16.0 | 23.0 | 0.00 | 0.00 | 0.00 | 32 | 1010.4 |
| 20260508174510 | 78 | 11 | 14.0 | 25.0 | 0.00 | 0.00 | 0.00 | 33 | 1010.5 |
| 20260508173005 | 77 | 11 | 16.0 | 24.0 | 0.00 | 0.00 | 0.00 | 33 | 1010.6 |
| 20260508171504 | 77 | 9 | 15.0 | 23.0 | 0.00 | 0.00 | 0.00 | 33 | 1010.5 |
| 20260508170002 | 77 | 9 | 17.0 | 25.0 | 0.00 | 0.00 | 0.00 | 32 | 1010.6 |
| 20260508164601 | 76 | 9 | 14.0 | 22.0 | 0.00 | 0.00 | 0.00 | 33 | 1010.5 |
| 20260508163056 | 75 | 11 | 14.0 | 22.0 | 0.00 | 0.00 | 0.00 | 36 | 1010.5 |
| 20260508161600 | 74 | 11 | 15.0 | 22.0 | 0.00 | 0.00 | 0.00 | 37 | 1010.6 |
| 20260508160049 | 73 | 13 | 13.0 | 20.0 | 0.00 | 0.00 | 0.00 | 40 | 1010.6 |
| 20260508154546 | 72 | 13 | 12.0 | 20.0 | 0.00 | 0.00 | 0.00 | 42 | 1010.8 |
| 20260508153049 | 70 | 9 | 12.0 | 19.0 | 0.00 | 0.00 | 0.00 | 44 | 1010.8 |
| 20260508151539 | 69 | 11 | 9.0 | 16.0 | 0.00 | 0.00 | 0.00 | 44 | 1010.9 |
| 20260508150035 | 67 | 11 | 10.0 | 17.0 | 0.00 | 0.00 | 0.00 | 47 | 1011.0 |
| 20260508144533 | 65 | 13 | 9.0 | 15.0 | 0.00 | 0.00 | 0.00 | 49 | 1011.0 |
| 20260508143027 | 62 | 360 | 6.0 | 11.0 | 0.00 | 0.00 | 0.00 | 54 | 1011.1 |
| 20260508141525 | 59 | 360 | 7.0 | 10.0 | 0.00 | 0.00 | 0.00 | 59 | 1011.1 |
| 20260508140023 | 55 | 360 | 5.0 | 9.0 | 0.00 | 0.00 | 0.00 | 69 | 1011.3 |
| 20260508134513 | 53 | 360 | 6.0 | 10.0 | 0.00 | 0.00 | 0.00 | 75 | 1011.2 |
| 20260508133010 | 51 | 360 | 3.0 | 9.0 | 0.00 | 0.00 | 0.00 | 79 | 1010.8 |
| 20260508131510 | 48 | 360 | 2.0 | 4.0 | 0.00 | 0.00 | 0.00 | 84 | 1010.8 |
| 20260508130019 | 46 | 257 | 2.0 | 3.0 | 0.00 | 0.00 | 0.00 | 83 | 1011.1 |
| 20260508124507 | 46 | 258 | 2.0 | 4.0 | 0.00 | 0.00 | 0.00 | 83 | 1010.8 |
| 20260508123012 | 46 | 254 | 2.0 | 3.0 | 0.00 | 0.00 | 0.00 | 82 | 1010.7 |
| 20260508121506 | 46 | 274 | 3.0 | 6.0 | 0.00 | 0.00 | 0.00 | 80 | 1010.6 |
| 20260508120005 | 47 | 279 | 3.0 | 7.0 | 0.00 | 0.00 | 0.00 | 79 | 1010.5 |
| 20260508114505 | 47 | 281 | 3.0 | 7.0 | 0.00 | 0.01 | 0.00 | 78 | 1010.5 |
| 20260508113004 | 47 | 216 | 6.0 | 7.0 | 0.00 | 0.01 | 0.00 | 78 | 1010.3 |
| 20260508111505 | 47 | 207 | 5.0 | 7.0 | 0.00 | 0.01 | 0.00 | 76 | 1010.4 |
| 20260508110110 | 48 | 217 | 7.0 | 10.0 | 0.00 | 0.01 | 0.00 | 75 | 1010.4 |
| 20260508104600 | 48 | 232 | 5.0 | 8.0 | 0.00 | 0.01 | 0.00 | 75 | 1010.3 |
| 20260508103108 | 48 | 221 | 6.0 | 10.0 | 0.00 | 0.01 | 0.00 | 74 | 1010.7 |
| 20260508101558 | 48 | 234 | 7.0 | 10.0 | 0.00 | 0.01 | 0.00 | 73 | 1010.6 |
| 20260508100056 | 49 | 223 | 7.0 | 9.0 | 0.00 | 0.01 | 0.00 | 72 | 1010.7 |
| 20260508094555 | 48 | 224 | 8.0 | 11.0 | 0.00 | 0.01 | 0.00 | 73 | 1010.7 |
| 20260508093104 | 48 | 210 | 8.0 | 10.0 | 0.00 | 0.01 | 0.00 | 73 | 1010.9 |
| 20260508091555 | 49 | 229 | 7.0 | 10.0 | 0.00 | 0.01 | 0.00 | 71 | 1010.9 |
| 20260508090100 | 50 | 234 | 8.0 | 12.0 | 0.00 | 0.01 | 0.00 | 68 | 1010.8 |
| 20260508084551 | 51 | 232 | 10.0 | 12.0 | 0.00 | 0.01 | 0.00 | 68 | 1010.8 |
| 20260508083051 | 51 | 227 | 7.0 | 10.0 | 0.00 | 0.01 | 0.00 | 69 | 1010.9 |
| 20260508081548 | 49 | 223 | 7.0 | 9.0 | 0.00 | 0.01 | 0.00 | 71 | 1011.1 |
| 20260508080047 | 49 | 215 | 7.0 | 10.0 | 0.00 | 0.01 | 0.00 | 70 | 1011.1 |
| 20260508074547 | 48 | 215 | 7.0 | 9.0 | 0.00 | 0.01 | 0.00 | 71 | 1011.4 |
| 20260508073045 | 46 | 213 | 5.0 | 6.0 | 0.00 | 0.01 | 0.00 | 72 | 1011.6 |
| 20260508071539 | 47 | 211 | 4.0 | 5.0 | 0.00 | 0.01 | 0.00 | 69 | 1011.5 |
| 20260508070036 | 49 | 207 | 4.0 | 5.0 | 0.00 | 0.01 | 0.00 | 66 | 1011.8 |
| 20260508064538 | 49 | 194 | 3.0 | 5.0 | 0.00 | 0.01 | 0.00 | 65 | 1012.2 |
| 20260508063044 | 48 | 186 | 2.0 | 3.0 | 0.00 | 0.01 | 0.00 | 66 | 1012.2 |
| 20260508061531 | 48 | 186 | 2.0 | 3.0 | 0.00 | 0.01 | 0.00 | 67 | 1012.4 |
| 20260508060028 | 48 | 15 | 2.0 | 5.0 | 0.00 | 0.01 | 0.00 | 66 | 1012.5 |
| 20260508054525 | 50 | 17 | 2.0 | 4.0 | 0.00 | 0.01 | 0.00 | 63 | 1012.6 |
| 20260508053024 | 50 | 19 | 2.0 | 4.0 | 0.00 | 0.01 | 0.00 | 64 | 1012.6 |
| 20260508051521 | 49 | 18 | 2.0 | 4.0 | 0.00 | 0.01 | 0.00 | 66 | 1012.7 |
| 20260508050025 | 50 | 14 | 3.0 | 5.0 | 0.00 | 0.01 | 0.00 | 64 | 1013.0 |
| 20260508044516 | 50 | 17 | 5.0 | 7.0 | 0.00 | 0.02 | 0.01 | 63 | 1013.1 |
| 20260508043016 | 50 | 15 | 2.0 | 3.0 | 0.00 | 0.02 | 0.01 | 62 | 1013.3 |